This is the latest recevied weather packets stored in our database for station/object G4KVI. If no packets are shown the sender has not sent any weather packets the latest 10 day(s).
| Time | Temp. | Humidity | Pressure | Rain* | Wind** | Luminosity | Snow |
|---|---|---|---|---|---|---|---|
| 1788008406 | 18.33° C | 94% | 1002.1 hPa | 2.03 mm | - | 120 W/m² | - |
| 1788008106 | 18.33° C | 94% | 1002 hPa | 2.03 mm | - | 108 W/m² | - |
| 1788007806 | 18.33° C | 93% | 1001.8 hPa | 2.03 mm | - | 72 W/m² | - |
| 1788007506 | 18.33° C | 93% | 1001.7 hPa | 1.78 mm | - | 78 W/m² | - |
| 1788007206 | 18.33° C | 93% | 1001.9 hPa | 2.29 mm | - | 150 W/m² | - |
| 1788006906 | 18.33° C | 94% | 1001.6 hPa | 3.05 mm | - | 131 W/m² | - |
| 1788006606 | 17.78° C | 93% | 1001.5 hPa | 3.81 mm | - | 218 W/m² | - |
| 1788006306 | 17.78° C | 93% | 1001.8 hPa | 4.32 mm | - | 274 W/m² | - |
| 1788006006 | 17.78° C | 93% | 1001.6 hPa | 4.32 mm | - | 227 W/m² | - |
| 1788005706 | 17.78° C | 93% | 1001.9 hPa | 4.32 mm | - | 112 W/m² | - |
| 1788005406 | 17.78° C | 93% | 1001.9 hPa | 4.06 mm | - | 89 W/m² | - |
| 1788005106 | 17.78° C | 93% | 1001.9 hPa | 3.56 mm | - | 71 W/m² | - |
| 1788004806 | 17.78° C | 93% | 1002.2 hPa | 3.56 mm | - | 73 W/m² | - |
| 1788004506 | 17.78° C | 93% | 1002.3 hPa | 4.06 mm | - | 135 W/m² | - |
| 1788004206 | 17.78° C | 93% | 1002.2 hPa | 4.06 mm | - | 142 W/m² | - |
| 1788003906 | 17.78° C | 93% | 1002.3 hPa | 4.57 mm | - | 114 W/m² | - |
| 1788003606 | 17.78° C | 93% | 1002.7 hPa | 4.32 mm | - | 66 W/m² | - |
| 1788003306 | 17.78° C | 93% | 1002.8 hPa | 3.56 mm | - | 29 W/m² | - |
| 1788003012 | 18.33° C | 93% | 1002.7 hPa | 2.79 mm | - | 69 W/m² | - |
| 1788002706 | 18.33° C | 93% | 1002.8 hPa | 2.03 mm | - | 138 W/m² | - |
| 1788002406 | 18.33° C | 93% | 1002.8 hPa | 2.29 mm | - | 156 W/m² | - |
| 1788002106 | 18.33° C | 94% | 1003 hPa | 2.29 mm | - | 210 W/m² | - |
| 1788001806 | 18.33° C | 93% | 1003.2 hPa | 2.29 mm | - | 135 W/m² | - |
| 1788001506 | 18.33° C | 94% | 1003.1 hPa | 2.29 mm | - | 132 W/m² | - |
| 1788001206 | 17.78° C | 94% | 1003.1 hPa | 2.03 mm | - | 182 W/m² | - |
* Rain latest hour (hover to see other rain measurements)
** Current wind speed in m/s (hover to see current wind gust speed)